[Iaude] MPEC P62: 2024 PQ [a=1.50,e=0.32,i=5.1,H=27.8]

mpec at cfa.harvard.edu mpec at cfa.harvard.edu
Sun Aug 4 20:23:34 EDT 2024


M.P.E.C. 2024-P62                                Issued 2024 August 5, 00:21 UT

     The Minor Planet Electronic Circulars contain information on unusual
         minor planets, routine data on comets and natural satellites,
         and occasional editorial announcements.  They are published
    on behalf of Division F of the International Astronomical Union by the
          Minor Planet Center, Smithsonian Astrophysical Observatory,
                          Cambridge, MA 02138, U.S.A.
			  
             Prepared using the Tamkin Foundation Computer Network

                              MPC at CFA.HARVARD.EDU
            URL https://www.minorplanetcenter.net/    ISSN 1523-6714

                                    2024 PQ                                     


Observations:
     K24P00Q  C2024 08 01.30341317 29 04.010+06 52 55.61         19.78GVEP062F51
     K24P00Q  C2024 08 01.30414217 29 05.077+06 52 47.89         19.56GVEP062F51
     K24P00Q  C2024 08 01.30485617 29 06.219+06 52 39.74         19.37GVEP062F51
     K24P00Q  C2024 08 01.30557117 29 07.270+06 52 32.42         19.32GVEP062F51
     K24P00Q  C2024 08 04.33563820 33 22.219-11 54 40.74         17.62gUEP062I41
     K24P00Q  C2024 08 04.33598520 33 24.208-11 54 52.15         17.62gUEP062I41
     K24P00Q  C2024 08 04.38363020 37 51.808-12 19 50.89         17.02RUEP062I41
     K24P00Q  C2024 08 04.38397720 37 53.843-12 20 01.80         17.02RUEP062I41
     K24P00Q* C2024 08 04.42759520 42 49.798-12 39 18.83         17.14oVEP062T08
     K24P00Q  C2024 08 04.43049920 43 06.079-12 40 50.45         17.05oVEP062T08
     K24P00Q  C2024 08 04.46243620 46 05.822-12 57 27.25         17.04oVEP062T08
     K24P00Q  C2024 08 04.46796920 46 36.982-13 00 17.46         17.02oVEP062T08
     K24P00Q  C2024 08 04.51193820 50 47.347-13 22 36.95         16.98oVEP062T08
     K24P00Q KC2024 08 04.89532221 32 01.83 -16 33 46.3          17.8 GVEP062L01
     K24P00Q KC2024 08 04.89585021 32 04.96 -16 34 00.4          17.9 GVEP062L01
     K24P00Q KC2024 08 04.89637721 32 08.08 -16 34 14.6          17.9 GVEP062L01
     K24P00Q KC2024 08 04.89690121 32 11.23 -16 34 29.0          17.8 GVEP062L01
     K24P00Q KC2024 08 04.89742421 32 14.33 -16 34 43.6          17.3 GVEP062L01
     K24P00Q KC2024 08 04.89794721 32 17.44 -16 34 57.1          17.4 GVEP062L01
     K24P00Q KC2024 08 04.89847021 32 20.57 -16 35 11.4          17.7 GVEP062L01
     K24P00Q KC2024 08 04.89899321 32 23.69 -16 35 25.8          17.6 GVEP062L01
     K24P00Q KB2024 08 04.93307 21 35 47.542-16 50 14.78         17.8 GVEP062L47
     K24P00Q KB2024 08 04.93412 21 35 53.678-16 50 41.86         18.2 GVEP062L47
     K24P00Q KB2024 08 04.93519 21 36 00.070-16 51 10.26         18.4 GVEP062L47
     K24P00Q KB2024 08 04.93625 21 36 06.353-16 51 38.02         18.0 GVEP062L47
     K24P00Q KC2024 08 04.94260121 36 53.290-16 55 22.15         17.3 GVEP062J95
     K24P00Q KC2024 08 04.94399821 37 01.630-16 55 58.80         17.2 GVEP062J95
     K24P00Q KC2024 08 04.94533021 37 09.590-16 56 34.01         17.3 GVEP062J95
     K24P00Q KC2024 08 04.94689521 37 18.922-16 57 15.12         17.3 GVEP062J95
     K24P00Q KC2024 08 04.96601 21 38 58.13 -17 03 33.7          17.1 rqEP062L90
     K24P00Q KC2024 08 04.97087 21 39 26.52 -17 05 37.6          17.1 rqEP062L90
     K24P00Q KC2024 08 04.97580 21 39 55.14 -17 07 42.8          17.0 rqEP062L90

Observer details:
F51 Pan-STARRS 1, Haleakala.  Observers J. Herman, T. Lowe, P. Minguez, A.
    Schultz, I. Smith.  Measurers K. Chambers, T. de Boer, J. Fairlamb, H.
    Gao, M. Huber, C.-C. Lin, E. Magnier, Y. Ramanjooloo, R. Wainscoat, R.
    Weryk.  1.8-m Ritchey-Chretien + CCD.
I41 Palomar Mountain--ZTF.  Observers G. Helou, T. A. Prince, K.
    Venkataramani, Y. Wagh, Q.-Z. Ye, Z. T. F. Collaboration.  Measurers D. A.
    Duev, H.-W. Lin, A. A. Mahabal, F. J. Masci, Q.-Z. Ye.  1.2-m f/2.4
    Schmidt + ZTF Camera.
J95 Great Shefford.  Observer P. Birtwhistle.  0.41-m f/6.3 Schmidt-Cassegrain
    + CCD.
L01 Visnjan Observatory, Tican.  Observer K. Korlevic.  1.0-m f/2.9 reflector
    + CCD.
L47 Osservatorio Astronomico, Piobbico.  Observers A. Teseo, A. Annamelia.
    Measurer A. Teseo.  0.28-m f/6.3 Schmidt-Cassegrain + CMO.
L90 ABObservatory, Rosarno.  Observer A. Brosio.  0.30-m f/3.9 reflector +
    CCD.
T08 ATLAS-MLO, Mauna Loa.  Observers L. Denneau, R. Siverd, J. Tonry, H.
    Weiland.  Measurers L. Denneau, N. Erasmus, A. Fitzsimmons, J. Robinson,
    R. Siverd, J. Tonry, H. Weiland.  0.5-m Reflector + CCD.

Orbital elements:
2024 PQ                                                  Earth MOID = 0.0074 AU
Epoch 2024 Oct. 17.0 TT = JDT 2460600.5                 Veres                   
M  38.52067              (2000.0)            P               Q                  
n   0.53898434     Peri.  181.98291     +0.70073941     +0.71042155             
a   1.4953813      Node   132.51150     -0.65332209     +0.67579308             
e   0.3171444      Incl.    5.08307     -0.28659120     +0.19648138             
P   1.83           H   27.81          G   0.15           U   7                  
Residuals in seconds of arc
240801 F51  0.2-  0.2+    240804 T08  0.8-  0.2+    240804 L47 (2.0-  1.8+)
240801 F51  0.5-  0.2+    240804 T08  0.0   0.2+    240804 L47  0.4-  1.5+
240801 F51  0.6+  0.3-    240804 L01  0.0   0.3-    240804 L47 (0.3-  1.8+)
240801 F51  0.3+  0.0     240804 L01  0.2-  0.0     240804 J95  0.0   0.2-
240804 I41  0.3-  0.1+    240804 L01  0.5-  0.1+    240804 J95  0.0   0.1-
240804 I41  0.4+  0.2-    240804 L01  0.1-  0.0     240804 J95  0.1+  0.2-
240804 I41 (0.2-  0.5+)   240804 L01  0.2-  0.4-    240804 J95  0.0   0.1-
240804 I41 (0.8+  0.4+)   240804 L01  0.2-  0.3+    240804 L90  1.5+  0.5-
240804 T08  0.2+  0.1+    240804 L01  0.0   0.2+    240804 L90  2.5+  0.5-
240804 T08  0.2+  0.1-    240804 L01  0.1+  0.0     240804 L90  1.1+  0.7-
240804 T08  0.7+  0.5-    240804 L47  0.9-  1.1+

Ephemeris:
2024 PQ                  a,e,i = 1.50, 0.32, 5                   q = 1.0211
Date    TT    R. A. (2000) Decl.     Delta      r    Elong.  Phase     V
2024 07 06    15 44 23.7 +15 23 31   0.08821 1.0618   118.6    57.2    24.7
...
2024 07 21    15 55 19.2 +15 01 49   0.04484 1.0321   109.8    67.9    23.5
...
2024 07 29    16 32 05.0 +12 12 16   0.02129 1.0238   112.9    66.0    21.8
...
2024 08 04    20 01 04.0 -08 39 31   0.0069181.0213   163.9    16.0    17.9
2024 08 05    21 42 16.0 -16 59 36   0.0067481.0211   170.1     9.8    17.6
2024 08 06    23 16 22.6 -21 36 30   0.0078731.0210   148.6    31.2    18.7
...
2024 08 12    02 14 04.1 -20 59 07   0.02347 1.0224   112.1    66.7    22.1
...
2024 08 20    02 47 23.7 -19 26 03   0.04706 1.0292   110.4    67.1    23.6
...
2024 09 04    02 56 01.4 -18 43 27   0.09036 1.0563   119.8    56.0    24.7

M. P. C. Staff               (C) Copyright 2024 MPC           M.P.E.C. 2024-P62





More information about the Iaude mailing list